Погода в имени Карле Марксе

Узбекистан     41°30′44″N   60°38′30″E
темп.,
°C
ветер,
м/с
пор.,
м/с
влажн.,
%
обл.,
%
осадки,
мм/ч
давл.,
гПа
погр.,
м
23 мая, пн
пн2323:00+20всв35380 0.0 1015132
02:00+19в47410 0.0 1014168
05:00+18в48410 0.0 1013152
08:00+22юв79300 0.0 1012733
11:00+26юв88210 0.0 10111764
14:00+29юв89160 0.0 10082173
17:00+29юв78140 0.0 10062247
20:00+27вюв58160 0.0 1005247
24 мая, вт
вт2423:00+24в5101914 0.0 1004200
02:00+24вюв715200 0.0 1003432
05:00+21вюв6142498 0.0 1002321
08:00+24вюв71122100 0.0 1003461
11:00+30юв881686 0.0 10021548
14:00+33юв8912100 0.0 10011729
17:00+34ююв561075 0.0 10012282
20:00+31вюв461328 0.0 100185
25 мая, ср
ср2523:00+28юз33210 0.0 100227
02:00+25з712320 0.0 1004493
05:00+21з814480 0.0 1006577
08:00+22з912480 0.0 1008743
11:00+26зсз910340 0.0 10091249
14:00+29зсз89270 0.0 10101571
17:00+29зсз88240 0.0 10101898
20:00+27з68250 0.0 1012825
26 мая, чт
чт2623:00+24зсз610290 0.0 1014531
02:00+22сз48360 0.0 1014226
05:00+19ссз49410 0.0 1016272
08:00+21с67315 0.0 1018780
11:00+25с552699 0.0 10181836
14:00+26ссз442491 0.0 10182436
17:00+26ссз972442 0.0 10172074
20:00+24ссз6627100 0.0 10181327
27 мая, пт
пт2723:00+20зсз6751100 0.0 1019324
02:00+20ссз464197 0.0 1018327
05:00+18ссз4558100 0.4 1019264
08:00+18в1258100 0.1 1020191
11:00+22ссв223559 0.2 10191395
14:00+24зсз2231100 0.0 10182469
17:00+24в23315 0.0 10171278
20:00+23юв33315 0.0 1017139